ECP45K LGSK-EBBR

Flight info

Callsign ECP45K
Flight time N/A
Altitude 38000
Route TSL UN130 TALAS DCT MAVAR DCT AKIKA DCT VEKEN DCT ERKIR DCT KUNOD DCT EDISA DCT LIMGO N852 LNO
Aircraft A20N/M-SDE2E3FGHIRWXY/LB1

Departure

Time 2026-05-08 04:01
Airport Skiathos Island National Airport (LGSK)

Arrival

Time N/A
Airport Brussels Airport (EBBR)
Time Latitude Longitude Altitude Speed Heading
2026-05-08 03:47 39.17878 23.50220 63 ft 0 kts 289°
2026-05-08 03:52 39.17876 23.50227 63 ft 2 kts 289°
2026-05-08 03:52 39.17871 23.50245 63 ft 2 kts 288°
2026-05-08 03:53 39.17866 23.50264 63 ft 2 kts 288°
2026-05-08 03:53 39.17862 23.50281 62 ft 1 kts 288°
2026-05-08 03:53 39.17858 23.50293 62 ft 2 kts 265°
2026-05-08 03:53 39.17865 23.50311 62 ft 2 kts 223°
2026-05-08 03:54 39.17871 23.50317 63 ft 1 kts 199°
2026-05-08 03:54 39.17878 23.50320 63 ft 0 kts 199°
2026-05-08 03:56 39.17870 23.50316 63 ft 4 kts 199°
2026-05-08 03:57 39.17828 23.50296 60 ft 10 kts 200°
2026-05-08 03:57 39.17759 23.50266 56 ft 10 kts 196°
2026-05-08 03:57 39.17686 23.50246 52 ft 11 kts 197°
2026-05-08 03:57 39.17619 23.50217 48 ft 6 kts 201°
2026-05-08 03:58 39.17566 23.50240 44 ft 8 kts 132°
2026-05-08 03:58 39.17507 23.50271 40 ft 13 kts 189°
2026-05-08 03:58 39.17394 23.50220 33 ft 19 kts 201°
2026-05-08 03:58 39.17276 23.50170 26 ft 16 kts 198°
2026-05-08 03:59 39.17186 23.50130 22 ft 13 kts 199°
2026-05-08 03:59 39.17096 23.50088 19 ft 13 kts 201°
2026-05-08 03:59 39.17046 23.50049 17 ft 7 kts 169°
2026-05-08 03:59 39.17044 23.50070 17 ft 0 kts 13°
2026-05-08 04:00 39.17101 23.50091 19 ft 30 kts 20°
2026-05-08 04:00 39.17554 23.50295 45 ft 104 kts 17°
2026-05-08 04:00 39.18427 23.50676 117 ft 155 kts 21°
2026-05-08 04:00 39.19474 23.51151 652 ft 161 kts 22°
2026-05-08 04:01 39.20488 23.51636 1480 ft 153 kts 22°
2026-05-08 04:01 39.21490 23.51900 2109 ft 151 kts 352°
2026-05-08 04:01 39.22472 23.51338 2433 ft 165 kts 326°
2026-05-08 04:01 39.23575 23.50687 2741 ft 184 kts 345°
2026-05-08 04:02 39.24879 23.50221 3076 ft 204 kts 340°
2026-05-08 04:02 39.26258 23.49577 3468 ft 223 kts 339°
2026-05-08 04:02 39.27783 23.48860 3875 ft 244 kts 340°
2026-05-08 04:02 39.29447 23.48113 4379 ft 263 kts 340°
2026-05-08 04:03 39.31244 23.47334 4994 ft 276 kts 341°
2026-05-08 04:03 39.34922 23.45786 6708 ft 282 kts 341°
2026-05-08 04:03 39.36793 23.45008 7565 ft 284 kts 340°
2026-05-08 04:04 39.38645 23.44239 8403 ft 286 kts 340°
2026-05-08 04:04 39.40542 23.43450 9230 ft 288 kts 340°
2026-05-08 04:04 39.42432 23.42664 10029 ft 290 kts 339°
2026-05-08 04:04 39.44372 23.41859 10680 ft 297 kts 339°
2026-05-08 04:05 39.46405 23.41006 11087 ft 313 kts 339°
2026-05-08 04:05 39.48485 23.40137 11715 ft 320 kts 340°
2026-05-08 04:05 39.50586 23.39265 12469 ft 321 kts 339°
2026-05-08 04:05 39.52726 23.38375 13209 ft 324 kts 339°
2026-05-08 04:06 39.54862 23.37485 13899 ft 327 kts 339°
2026-05-08 04:06 39.57056 23.36570 14576 ft 330 kts 339°
2026-05-08 04:06 39.59270 23.35646 15219 ft 334 kts 339°
2026-05-08 04:06 39.61528 23.34706 15856 ft 338 kts 338°
2026-05-08 04:07 39.63785 23.33763 16489 ft 342 kts 338°
2026-05-08 04:07 39.66043 23.32820 17080 ft 346 kts 338°
2026-05-08 04:07 39.68356 23.31854 17678 ft 349 kts 338°
2026-05-08 04:07 39.70686 23.30878 18262 ft 353 kts 338°
2026-05-08 04:08 39.73054 23.29886 18855 ft 356 kts 338°
2026-05-08 04:08 39.75423 23.28892 19424 ft 359 kts 338°
2026-05-08 04:08 39.77810 23.27892 20002 ft 362 kts 337°
2026-05-08 04:08 39.80197 23.26892 20566 ft 364 kts 337°
2026-05-08 04:09 39.82627 23.25873 21121 ft 366 kts 336°
2026-05-08 04:09 39.85036 23.24859 21668 ft 368 kts 336°
2026-05-08 04:09 39.87477 23.23832 22192 ft 370 kts 336°
2026-05-08 04:09 39.89934 23.22799 22700 ft 373 kts 336°
2026-05-08 04:10 39.92430 23.21746 23196 ft 376 kts 336°
2026-05-08 04:10 39.94942 23.20684 23700 ft 378 kts 336°
2026-05-08 04:10 39.97427 23.19635 24200 ft 380 kts 336°
2026-05-08 04:10 39.99961 23.18567 24748 ft 381 kts 335°
2026-05-08 04:11 40.02479 23.17501 25235 ft 383 kts 335°
2026-05-08 04:11 40.05040 23.16416 25723 ft 385 kts 335°
2026-05-08 04:11 40.07573 23.15344 26165 ft 387 kts 335°
2026-05-08 04:11 40.10136 23.14257 26589 ft 390 kts 335°
2026-05-08 04:12 40.12744 23.13151 27040 ft 391 kts 335°
2026-05-08 04:12 40.15353 23.12046 27477 ft 393 kts 335°
2026-05-08 04:12 40.17931 23.10950 27913 ft 394 kts 335°
2026-05-08 04:12 40.20557 23.09834 28289 ft 397 kts 335°
2026-05-08 04:13 40.23201 23.08706 28562 ft 401 kts 335°
2026-05-08 04:13 40.25837 23.07585 28909 ft 404 kts 335°
2026-05-08 04:13 40.28531 23.06439 29264 ft 406 kts 335°
2026-05-08 04:13 40.31211 23.05299 29649 ft 407 kts 334°
2026-05-08 04:14 40.33895 23.04153 30008 ft 408 kts 334°
2026-05-08 04:14 40.36595 23.02997 30332 ft 410 kts 334°
2026-05-08 04:14 40.39315 23.01776 30666 ft 409 kts 331°
2026-05-08 04:14 40.41866 23.00260 31019 ft 403 kts 325°
2026-05-08 04:15 40.44279 22.98395 31352 ft 399 kts 319°
2026-05-08 04:15 40.46472 22.96268 31633 ft 396 kts 314°
2026-05-08 04:15 40.48498 22.93835 31918 ft 393 kts 308°
2026-05-08 04:15 40.50307 22.91166 32200 ft 390 kts 303°
2026-05-08 04:16 40.51972 22.88377 32587 ft 388 kts 302°
2026-05-08 04:16 40.53612 22.85585 33022 ft 384 kts 302°
2026-05-08 04:16 40.55244 22.82800 33388 ft 383 kts 302°
2026-05-08 04:16 40.56842 22.80055 33737 ft 381 kts 302°
2026-05-08 04:17 40.58444 22.77306 34093 ft 379 kts 302°
2026-05-08 04:17 40.60062 22.74533 34420 ft 378 kts 301°
2026-05-08 04:17 40.61650 22.71801 34680 ft 377 kts 302°
2026-05-08 04:17 40.63244 22.69058 34973 ft 376 kts 301°
2026-05-08 04:18 40.64830 22.66327 35250 ft 375 kts 302°
2026-05-08 04:18 40.66414 22.63596 35497 ft 375 kts 302°
2026-05-08 04:18 40.67990 22.60878 35755 ft 374 kts 302°
2026-05-08 04:18 40.69572 22.58151 35959 ft 374 kts 302°
2026-05-08 04:19 40.71154 22.55419 36178 ft 373 kts 301°
2026-05-08 04:19 40.72716 22.52712 36398 ft 373 kts 302°
2026-05-08 04:19 40.74276 22.50018 36612 ft 372 kts 302°
2026-05-08 04:19 40.75842 22.47305 36779 ft 372 kts 301°
2026-05-08 04:20 40.77419 22.44571 36915 ft 372 kts 302°
2026-05-08 04:20 40.78981 22.41860 37083 ft 372 kts 302°
2026-05-08 04:20 40.80532 22.39168 37229 ft 372 kts 302°
2026-05-08 04:20 40.82124 22.36411 37394 ft 371 kts 301°
2026-05-08 04:21 40.83672 22.33713 37555 ft 371 kts 301°
2026-05-08 04:21 40.85233 22.31000 37724 ft 371 kts 301°
2026-05-08 04:21 40.86793 22.28284 37844 ft 371 kts 301°
2026-05-08 04:21 40.88353 22.25563 37939 ft 372 kts 301°
2026-05-08 04:22 40.91475 22.20112 38051 ft 375 kts 301°
2026-05-08 04:22 40.94617 22.14614 38068 ft 378 kts 300°
2026-05-08 04:23 40.97785 22.09062 38063 ft 378 kts 301°
2026-05-08 04:23 41.00951 22.03499 38047 ft 379 kts 301°
2026-05-08 04:24 41.04133 21.97906 38045 ft 380 kts 301°
2026-05-08 04:24 41.07230 21.92312 38064 ft 380 kts 298°
2026-05-08 04:25 41.09987 21.86363 38078 ft 378 kts 295°
2026-05-08 04:25 41.12604 21.80378 38076 ft 378 kts 295°
2026-05-08 04:26 41.15240 21.74332 38081 ft 378 kts 295°
2026-05-08 04:26 41.17855 21.68321 38080 ft 379 kts 295°
2026-05-08 04:27 41.20481 21.62270 38077 ft 379 kts 295°
2026-05-08 04:27 41.23104 21.56214 38071 ft 379 kts 295°
2026-05-08 04:28 41.25729 21.50139 38070 ft 381 kts 295°
2026-05-08 04:28 41.28363 21.44032 38069 ft 381 kts 295°
2026-05-08 04:29 41.30982 21.37949 38067 ft 381 kts 295°
2026-05-08 04:29 41.33608 21.31838 38067 ft 382 kts 294°
2026-05-08 04:30 41.36232 21.25717 38065 ft 381 kts 294°
2026-05-08 04:30 41.38858 21.19586 38065 ft 383 kts 294°
2026-05-08 04:31 41.41489 21.13423 38066 ft 384 kts 294°
2026-05-08 04:31 41.42805 21.10335 37946 ft 383 kts 294°
2026-05-08 04:31 41.44117 21.07256 38004 ft 385 kts 295°
2026-05-08 04:32 41.45423 21.04180 38153 ft 385 kts 295°
2026-05-08 04:32 41.46750 21.01064 37920 ft 384 kts 294°
2026-05-08 04:32 41.49382 20.94863 38053 ft 386 kts 295°
2026-05-08 04:33 41.52018 20.88646 38076 ft 386 kts 294°
2026-05-08 04:33 41.54646 20.82421 38060 ft 387 kts 294°
2026-05-08 04:34 41.57279 20.76178 38075 ft 387 kts 295°
2026-05-08 04:34 41.59920 20.69903 38067 ft 388 kts 295°
2026-05-08 04:35 41.62547 20.63644 38078 ft 388 kts 295°
2026-05-08 04:35 41.65482 20.57542 38074 ft 392 kts 301°
2026-05-08 04:36 41.68945 20.51908 38098 ft 398 kts 307°
2026-05-08 04:36 41.72972 20.46742 38076 ft 403 kts 314°
2026-05-08 04:37 41.77347 20.42045 38083 ft 406 kts 315°
2026-05-08 04:37 41.81772 20.37369 38065 ft 406 kts 316°
2026-05-08 04:38 41.86190 20.32693 38054 ft 406 kts 315°
2026-05-08 04:38 41.90639 20.27973 38053 ft 407 kts 315°
2026-05-08 04:39 41.95054 20.23279 38048 ft 408 kts 315°
2026-05-08 04:39 41.99503 20.18541 38045 ft 408 kts 315°
2026-05-08 04:40 42.03923 20.13823 38038 ft 407 kts 315°
2026-05-08 04:40 42.08344 20.09095 38034 ft 406 kts 315°
2026-05-08 04:41 42.12764 20.04360 38027 ft 407 kts 315°
2026-05-08 04:41 42.17190 19.99609 38018 ft 408 kts 315°
2026-05-08 04:42 42.21636 19.94831 38029 ft 409 kts 315°
2026-05-08 04:42 42.26055 19.90069 38032 ft 409 kts 315°
2026-05-08 04:43 42.30505 19.85265 38041 ft 409 kts 315°
2026-05-08 04:43 42.34936 19.80476 38050 ft 408 kts 315°
2026-05-08 04:44 42.39356 19.75689 38066 ft 409 kts 315°
2026-05-08 04:44 42.43779 19.70887 38080 ft 408 kts 315°
2026-05-08 04:45 42.48203 19.66075 38088 ft 409 kts 315°
2026-05-08 04:45 42.52609 19.61203 38086 ft 409 kts 313°
2026-05-08 04:46 42.56655 19.55924 38084 ft 405 kts 309°
2026-05-08 04:46 42.60587 19.50461 38071 ft 405 kts 309°
2026-05-08 04:47 42.64496 19.45011 38067 ft 405 kts 309°
2026-05-08 04:47 42.68434 19.39514 38070 ft 405 kts 309°
2026-05-08 04:48 42.72339 19.34058 38084 ft 404 kts 308°
2026-05-08 04:48 42.76241 19.28597 38099 ft 404 kts 308°
2026-05-08 04:49 42.80156 19.23105 38107 ft 405 kts 308°
2026-05-08 04:49 42.84056 19.17622 38098 ft 405 kts 308°
2026-05-08 04:50 42.87977 19.12102 38095 ft 406 kts 308°
2026-05-08 04:50 42.91890 19.06580 38094 ft 406 kts 308°
2026-05-08 04:51 42.95820 19.01026 38090 ft 406 kts 308°
2026-05-08 04:51 42.99723 18.95500 38098 ft 404 kts 308°
2026-05-08 04:52 43.03596 18.90003 38096 ft 404 kts 308°
2026-05-08 04:52 43.07497 18.84457 38101 ft 405 kts 308°
2026-05-08 04:53 43.11399 18.78898 38105 ft 405 kts 308°
2026-05-08 04:53 43.15277 18.73360 38108 ft 404 kts 308°
2026-05-08 04:54 43.19152 18.67816 38118 ft 404 kts 308°
2026-05-08 04:54 43.23052 18.62229 38116 ft 405 kts 308°
2026-05-08 04:55 43.26935 18.56653 38106 ft 405 kts 308°
2026-05-08 04:55 43.30810 18.51076 38099 ft 406 kts 308°
2026-05-08 04:56 43.34695 18.45476 38078 ft 406 kts 308°
2026-05-08 04:56 43.38568 18.39884 38073 ft 406 kts 308°
2026-05-08 04:57 43.42476 18.34225 38071 ft 406 kts 308°
2026-05-08 04:57 43.46354 18.28604 38067 ft 405 kts 308°
2026-05-08 04:58 43.50221 18.22986 38061 ft 406 kts 307°
2026-05-08 04:58 43.54096 18.17343 38059 ft 406 kts 307°
2026-05-08 04:59 43.57976 18.11684 38056 ft 406 kts 307°
2026-05-08 04:59 43.61830 18.06048 38063 ft 405 kts 307°
2026-05-08 05:00 43.65714 18.00360 38070 ft 405 kts 307°
2026-05-08 05:00 43.69556 17.94720 38067 ft 405 kts 307°
2026-05-08 05:01 43.73402 17.89062 38066 ft 405 kts 308°
2026-05-08 05:01 43.77249 17.83397 38061 ft 406 kts 307°
2026-05-08 05:02 43.81097 17.77711 38068 ft 405 kts 308°
2026-05-08 05:02 43.84936 17.72031 38057 ft 405 kts 308°
2026-05-08 05:03 43.88785 17.66325 38059 ft 406 kts 308°
2026-05-08 05:03 43.92632 17.60609 38058 ft 407 kts 308°
2026-05-08 05:04 43.96481 17.54882 38059 ft 407 kts 308°
2026-05-08 05:04 44.00318 17.49159 38061 ft 406 kts 307°
2026-05-08 05:05 44.04138 17.43447 38059 ft 407 kts 308°
2026-05-08 05:05 44.07991 17.37678 38057 ft 407 kts 307°
2026-05-08 05:06 44.11822 17.31929 38055 ft 407 kts 307°
2026-05-08 05:06 44.15668 17.26143 38059 ft 407 kts 307°
2026-05-08 05:07 44.19513 17.20346 38059 ft 408 kts 307°
2026-05-08 05:07 44.23328 17.14587 38056 ft 407 kts 307°
2026-05-08 05:08 44.27170 17.08772 38057 ft 408 kts 307°
2026-05-08 05:08 44.31012 17.02948 38048 ft 408 kts 307°
2026-05-08 05:09 44.34832 16.97140 38046 ft 407 kts 307°
2026-05-08 05:09 44.38652 16.91326 38046 ft 408 kts 307°
2026-05-08 05:10 44.44393 16.82562 38044 ft 408 kts 307°
2026-05-08 05:11 44.48213 16.76714 38042 ft 408 kts 307°
2026-05-08 05:11 44.52051 16.70827 38038 ft 408 kts 307°
2026-05-08 05:12 44.55857 16.64976 38039 ft 407 kts 307°
2026-05-08 05:12 44.59660 16.59116 38041 ft 407 kts 307°
2026-05-08 05:13 44.63460 16.53253 38043 ft 407 kts 307°
2026-05-08 05:13 44.67265 16.47366 38043 ft 406 kts 307°
2026-05-08 05:14 44.71056 16.41490 38039 ft 407 kts 307°
2026-05-08 05:14 44.74844 16.35606 38037 ft 407 kts 307°
2026-05-08 05:15 44.78625 16.29719 38042 ft 407 kts 306°
2026-05-08 05:15 44.82422 16.23796 38036 ft 406 kts 306°
2026-05-08 05:16 44.86183 16.17917 38037 ft 406 kts 307°
2026-05-08 05:16 44.89937 16.12037 38036 ft 406 kts 306°
2026-05-08 05:17 44.93721 16.06099 38035 ft 405 kts 306°